CW8490 Weather Reports


Display with metric or nautical units.
time (UTC)temp
F
wind
direction
speed
MPH
gust
MPH
rain 1hr
in
rain 24hr
in
rain mn
in
humidity
%
barometer
mb
20260903162817 91 180 8.0 13.0 0.00 0.00 0.00 61 1013.1
20260903161817 91 180 5.0 6.0 0.00 0.00 0.00 64 1013.2
20260903160837 90 203 4.0 8.0 0.00 0.00 0.00 65 1013.2
20260903155817 89 158 5.0 7.0 0.00 0.00 0.00 64 1013.3
20260903154818 89 180 5.0 9.0 0.00 0.00 0.00 65 1013.2
20260903153817 88 180 3.0 8.0 0.00 0.00 0.00 67 1013.2
20260903152817 88 203 4.0 7.0 0.00 0.00 0.00 67 1013.3
20260903151818 87 158 4.0 6.0 0.00 0.00 0.00 68 1013.2
20260903150818 86 113 6.0 6.0 0.00 0.00 0.00 70 1013.3
20260903145817 86 135 8.0 10.0 0.00 0.00 0.00 70 1013.3
20260903144837 85 225 4.0 5.0 0.00 0.00 0.00 71 1013.2
20260903143818 84 203 8.0 13.0 0.00 0.00 0.00 71 1013.3
20260903142818 84 158 6.0 9.0 0.00 0.00 0.00 71 1013.2
20260903141858 84 180 6.0 9.0 0.00 0.00 0.00 73 1013.3
20260903140817 83 203 6.0 10.0 0.00 0.00 0.00 73 1013.3
20260903135817 83 180 5.0 8.0 0.00 0.00 0.00 75 1013.6
20260903134818 82 158 3.0 4.0 0.00 0.00 0.00 77 1013.5
20260903133900 81 0.0 0.0 0.00 0.00 0.00 77 1013.4
20260903133017 80 135 3.0 5.0 0.00 0.00 0.00 77 1013.4
20260903132018 80 158 2.0 3.0 0.00 0.00 0.00 77 1013.4
20260903131018 79 135 2.0 4.0 0.00 0.00 0.00 78 1013.2
20260903130037 79 158 2.0 4.0 0.00 0.00 0.00 78 1013.2
20260903125018 78 158 2.0 4.0 0.00 0.00 0.00 78 1013.2
20260903124018 77 158 1.0 2.0 0.00 0.00 0.00 79 1013.1
20260903123018 77 158 2.0 3.0 0.00 0.00 0.00 80 1013.1
20260903122017 76 158 2.0 3.0 0.00 0.00 0.00 81 1013.0
20260903121037 75 158 2.0 3.0 0.00 0.00 0.00 82 1012.9
20260903120017 75 135 3.0 4.0 0.00 0.00 0.00 82 1012.9
20260903115037 75 113 2.0 3.0 0.00 0.00 0.00 82 1012.7
20260903114037 75 0.0 1.0 0.00 0.00 0.00 82 1012.7
20260903113017 75 135 2.0 3.0 0.00 0.00 0.00 81 1012.6
20260903112017 75 135 2.0 4.0 0.00 0.00 0.00 81 1012.6
20260903111018 75 135 2.0 3.0 0.00 0.00 0.00 81 1012.6
20260903110018 75 158 2.0 3.0 0.00 0.00 0.00 81 1012.6
20260903105038 75 113 2.0 3.0 0.00 0.00 0.00 81 1012.5
20260903104017 76 158 2.0 3.0 0.00 0.00 0.00 80 1012.4
20260903103018 76 158 1.0 3.0 0.00 0.00 0.00 79 1012.3
20260903102036 77 113 2.0 2.0 0.00 0.00 0.00 78 1012.3
20260903101015 77 135 2.0 3.0 0.00 0.00 0.00 78 1012.3
20260903100016 77 135 2.0 3.0 0.00 0.00 0.00 78 1012.2
20260903095015 77 158 2.0 3.0 0.00 0.00 0.00 78 1012.3
20260903094056 77 158 2.0 3.0 0.00 0.00 0.00 78 1012.2
20260903093015 76 158 2.0 2.0 0.00 0.00 0.00 79 1012.3
20260903092015 76 135 2.0 3.0 0.00 0.00 0.00 80 1012.2
20260903091036 75 0.0 0.0 0.00 0.00 0.00 80 1012.2
20260903090015 76 0.0 0.0 0.00 0.00 0.00 80 1012.3
20260903085016 76 0.0 0.0 0.00 0.00 0.00 79 1012.2
20260903084015 77 0.0 0.0 0.00 0.00 0.00 78 1012.3
20260903083016 77 180 1.0 2.0 0.00 0.00 0.00 78 1012.2
20260903082016 77 0.0 1.0 0.00 0.00 0.00 77 1012.2
20260903081016 78 180 2.0 2.0 0.00 0.00 0.00 76 1012.3
20260903080015 78 0.0 1.0 0.00 0.00 0.00 76 1012.1
20260903075016 78 158 1.0 2.0 0.00 0.00 0.00 75 1012.0
20260903074016 79 158 2.0 2.0 0.00 0.00 0.00 74 1012.2
20260903073015 79 0.0 1.0 0.00 0.00 0.00 74 1012.2
20260903072016 79 135 1.0 2.0 0.00 0.00 0.00 73 1012.2
20260903071016 80 135 1.0 3.0 0.00 0.00 0.00 72 1012.3
20260903070015 80 158 2.0 2.0 0.00 0.00 0.00 73 1012.3
20260903065016 80 135 1.0 2.0 0.00 0.00 0.00 73 1012.2
20260903064016 79 0.0 0.0 0.00 0.00 0.00 74 1012.2
20260903063036 79 0.0 0.0 0.00 0.00 0.00 74 1012.1
20260903062016 79 0.0 0.0 0.00 0.00 0.00 75 1012.1
20260903061016 79 0.0 0.0 0.00 0.00 0.00 76 1012.1
20260903060016 78 90 1.0 2.0 0.00 0.00 0.00 76 1012.0
20260903055016 79 135 1.0 1.0 0.00 0.00 0.00 76 1012.1
20260903054016 79 0.0 1.0 0.00 0.00 0.00 75 1012.1
20260903053016 79 0.0 1.0 0.00 0.00 0.00 75 1012.1
20260903052016 79 0.0 0.0 0.00 0.00 0.00 75 1012.1
20260903051036 79 0.0 0.0 0.00 0.00 0.00 75 1012.1
20260903050016 79 0.0 1.0 0.00 0.00 0.00 74 1012.0
20260903045016 79 0.0 0.0 0.00 0.00 0.00 76 1012.0
20260903044037 78 0.0 0.0 0.00 0.00 0.00 77 1011.8
20260903043017 79 0.0 0.0 0.00 0.00 0.00 77 1011.9
20260903042016 80 0.0 0.0 0.00 0.00 0.00 74 1011.9
20260903041037 80 0.0 0.0 0.00 0.00 0.00 73 1012.0
20260903040017 80 0.0 0.0 0.00 0.00 0.00 72 1012.0
20260903035017 81 0.0 0.0 0.00 0.00 0.00 72 1012.1
20260903034016 82 0.0 0.0 0.00 0.00 0.00 70 1012.1
20260903033016 83 0.0 0.0 0.00 0.00 0.00 69 1012.1
20260903032017 84 90 1.0 2.0 0.00 0.00 0.00 68 1012.0
20260903031017 84 0.0 1.0 0.00 0.00 0.00 67 1012.1
20260903030016 84 0.0 0.0 0.00 0.00 0.00 67 1012.1
20260903025017 84 0.0 0.0 0.00 0.00 0.00 67 1012.0
20260903024016 84 90 2.0 2.0 0.00 0.00 0.00 67 1011.9
20260903023016 84 113 1.0 2.0 0.00 0.00 0.00 68 1011.8
20260903022017 83 90 1.0 1.0 0.00 0.00 0.00 70 1011.6
20260903021016 83 0.0 0.0 0.00 0.00 0.00 70 1011.5
20260903020036 84 0.0 0.0 0.00 0.00 0.00 68 1011.4
20260903015017 85 0.0 0.0 0.00 0.00 0.00 66 1011.2
20260903014017 87 0.0 0.0 0.00 0.00 0.00 63 1011.1
20260903013016 89 135 1.0 2.0 0.00 0.00 0.00 59 1011.0
20260903012017 89 135 2.0 5.0 0.00 0.00 0.00 58 1010.9
20260903011017 89 135 2.0 3.0 0.00 0.00 0.00 59 1010.9
20260903010016 90 113 1.0 2.0 0.00 0.00 0.00 58 1010.8
20260903005037 90 135 1.0 2.0 0.00 0.00 0.00 58 1010.8
20260903004017 91 135 1.0 2.0 0.00 0.00 0.00 57 1010.9
20260903003017 92 113 1.0 1.0 0.00 0.00 0.00 57 1010.9
20260903002017 93 0.0 0.0 0.00 0.00 0.00 55 1011.0
20260903001017 94 135 2.0 4.0 0.00 0.00 0.00 53 1011.0
20260903000017 95 113 2.0 3.0 0.00 0.00 0.00 51 1011.0
20260902235036 95 158 1.0 3.0 0.00 0.00 0.00 51 1011.1
20260902234017 96 135 1.0 1.0 0.00 0.00 0.00 51 1011.1
20260902233057 97 158 2.0 4.0 0.00 0.00 0.00 50 1011.1
20260902232017 97 158 1.0 2.0 0.00 0.00 0.00 50 1011.2
20260902231037 96 158 2.0 3.0 0.00 0.00 0.00 49 1011.0
20260902230017 97 158 5.0 6.0 0.00 0.00 0.00 48 1011.1
20260902225017 97 180 2.0 5.0 0.00 0.00 0.00 49 1011.2
20260902224016 98 203 3.0 4.0 0.00 0.00 0.00 47 1011.2
20260902223017 99 180 4.0 5.0 0.00 0.00 0.00 47 1011.3
20260902222017 98 203 3.0 5.0 0.00 0.00 0.00 47 1011.3
20260902221017 98 158 5.0 7.0 0.00 0.00 0.00 46 1011.3
20260902220017 99 180 5.0 7.0 0.00 0.00 0.00 46 1011.3
20260902215037 99 135 4.0 5.0 0.00 0.00 0.00 48 1011.5
20260902214017 98 158 2.0 3.0 0.00 0.00 0.00 48 1011.6
20260902213037 98 180 6.0 9.0 0.00 0.00 0.00 47 1011.6
20260902212016 99 180 9.0 11.0 0.00 0.00 0.00 46 1011.8
20260902211018 98 158 4.0 7.0 0.00 0.00 0.00 49 1011.9
20260902210016 98 203 2.0 4.0 0.00 0.00 0.00 48 1012.0
20260902205037 98 135 4.0 8.0 0.00 0.00 0.00 47 1012.2
20260902204017 99 225 4.0 7.0 0.00 0.00 0.00 47 1012.3
20260902203017 99 203 3.0 5.0 0.00 0.00 0.00 48 1012.3
20260902202017 99 203 5.0 7.0 0.00 0.00 0.00 48 1012.5
20260902201016 98 203 2.0 4.0 0.00 0.00 0.00 50 1012.5
20260902200037 98 225 3.0 5.0 0.00 0.00 0.00 50 1012.6
20260902195017 98 158 5.0 6.0 0.00 0.00 0.00 49 1012.7
20260902194017 98 203 4.0 6.0 0.00 0.00 0.00 51 1012.8
20260902193037 97 248 4.0 6.0 0.00 0.00 0.00 50 1012.9
20260902192017 97 270 2.0 4.0 0.00 0.00 0.00 50 1013.0
20260902191017 98 270 6.0 9.0 0.00 0.00 0.00 50 1013.1
20260902190038 98 203 5.0 7.0 0.00 0.00 0.00 50 1013.3
20260902185017 98 158 5.0 8.0 0.00 0.00 0.00 51 1013.5
20260902184017 98 248 4.0 5.0 0.00 0.00 0.00 51 1013.6
20260902183017 98 203 3.0 5.0 0.00 0.00 0.00 53 1013.9
20260902182017 98 180 4.0 7.0 0.00 0.00 0.00 53 1014.0
20260902181018 97 248 3.0 6.0 0.00 0.00 0.00 53 1014.0
20260902180017 97 225 4.0 8.0 0.00 0.00 0.00 51 1014.1
20260902175017 97 225 5.0 9.0 0.00 0.00 0.00 53 1014.2
20260902174017 97 180 4.0 6.0 0.00 0.00 0.00 55 1014.3
20260902173017 96 180 4.0 6.0 0.00 0.00 0.00 55 1014.5
20260902172017 96 158 4.0 7.0 0.00 0.00 0.00 55 1014.6
20260902171017 95 180 4.0 7.0 0.00 0.00 0.00 59 1014.6
20260902170017 95 225 4.0 6.0 0.00 0.00 0.00 57 1014.7
20260902165017 94 180 4.0 8.0 0.00 0.00 0.00 58 1014.8
20260902164017 94 203 5.0 7.0 0.00 0.00 0.00 58 1015.0